User: anonymous   Login
Location: Unspecified
(0.0000°N, 0.0000°E)
Time: 11:22:05
(UTC+00:00)
Language:

USA-164 - Orbit

View from above orbital plane
View from above orbital plane
View from above satellite
View from above satellite

Ground track
Ground track

The orbit data is extracted from the following two-line orbital elements,

1 27168U 02001A   18172.29611757 0.00000000  00000-0  00000-0 0    07
2 27168   8.0446  35.0842 0005942 331.3182  28.6513  1.00270000    06
Epoch (UTC): 21 June 2018 07:06:24
Eccentricity: 0.0005942
inclination: 8.0446°
perigee height: 35761 km
apogee height: 35812 km
right ascension of ascending node: 35.0842°
argument of perigee: 331.3182°
revolutions per day: 1.00270000
mean anomaly at epoch: 28.6513°
orbit number at epoch: 0

The dashed part of the orbit path shows where the satellite is in the earth's shadow,  

DLR